COSMOS 2251 DEB, 35443

Orbit data source: Space-Track

COSMOS 2251 DEB, 35443 is space debris in LEO originally from a launch on Wed, 16 Jun 1993 UTC launched from the Plesetsk Missile And Space Complex (PKMTR). The debris from Iridium 33, an American commercial communications satellite, has been tracked extensively since its accidental collision with the defunct Russian satellite Cosmos 2251 in 2009. This event, occurring at high speed in low Earth orbit (LEO), generated thousands of pieces of space debris, significantly increasing the risk of further collisions. The Iridium 33 debris cloud has impacted space traffic management and orbital debris mitigation strategies, making it a subject of ongoing study in space situational awareness.

Loading next visibility...
Identifier
35443, 1993-036AKM
Orbit
LEO
Country
Flag of CISCIS
Related business
Manufacturer
Unknown
Mission
Spacecraft
Bus & Motor
Unknown
Mass
Unknown
Launch date (UTC)
1993-06-16 (33 years ago)
Launch vehicle
Unknown
Launch site
Plesetsk Missile And Space Complex (PKMTR)
Object type
Payload
Rocket body
Debris
Shape & HBR
Unknown shape, 0.1 m
Radar Cross Section
Small (<0.1 m²)

Expand to show TLE details & history
Last TLE update: 2 days ago

TLE from 2 days ago
0 COSMOS 2251 DEB
1 35443U 93036AKM 26035.51955334  .00052324  00000-0  36194-2 0  9992
2 35443  73.9814 221.9580 0069061 352.6692   7.3479 15.03487170876844
Epoch: 2026-02-04T12:28Z
TLE epoch observation values (Epoch: 2026-02-04T12:28:09.408Z)
Latitude
-0°
Longitude
-99.76617°
Altitude
511.344 km
Speed
7.634 km/s
True Right ascension
14h 47m 49s
True Declination
0° 00' 00"
Sunlit
Object was in daylight at epoch
Visualization orbit readout
Latitude
Unknown
Longitude
Unknown
Altitude
Unknown
Speed
Unknown
Apparent Right ascension
Unknown
Apparent Declination
Unknown
Sunlit
N/A
Visualization observer readout
Local Sidereal Time
18:02:49
Azimuth
Unknown
Elevation
Unknown
Doppler factor
Unknown
Orbital elements
Apogee altitude
601.58 km
Perigee altitude
505.836 km
Semi-major axis
6,931.845 km
Eccentricity
0.00691
Inclination
73.9814°
RAAN
221.958°
Arg. of periapsis
352.6692°
True anomaly
7.44999°
Mean anomaly
7.3479°
Eccentric anomaly
7.39886°
Mean motion
3.76071 °/min
Orbital period
95.73 mins
BSTAR
0.0036194
Loading maneuver chart data...
Computing Atmospheric mass density...

Documentation

Showing up to 5 results
|